SCP
0 -0 0 0 -0 -0 0 0 0 0 0 -0 0 0 0 0 0 0 0 0 -0 -0 0 -0 0 0 -0 0 0 0 1 2 2 0 -0 0 1 1 1 1 1 1 2 2
0 -0 0 0 -0 0 0 0 0 0 0 -0 0 0 0 -0 0 0 0 -0 -0 -1 -0 0 0 0 0 -0 0 1 1 2 1 0 0 0 1 1 1 1 2 2 2 2
0 -0 0 0 0 -0 -0 -0 0 0 0 0 0 0 -0 0 0 0 0 -0 -0 -0 -0 0 0 0 0 0 0 0 1 1 1 0 0 0 0 0 0 1 1 1 1 1
-0 0 0 0 -0 -0 0 0 0 0 0 0 1 0 0 0 0 0 -0 -1 -1 0 0 0 0 0 0 -0 0 0 1 0 0 0 0 0 0 0 0 1 1 1 1 1
0 0 0 0 0 0 0 0 0 0 0 0 0 0 0 0 0 0 -0 -1 -0 -0 -0 0 0 -0 -0 0 0 0 0 -0 -0 -0 -0 -0 -0 -0 -0 -0 0 0 1 1
0 0 0 -0 -0 0 0 0 0 0 0 0 -0 0 0 0 0 -0 -0 -0 -1 -1 -0 -0 -0 -0 -0 -0 -0 -0 -0 -0 -0 -0 0 0 0 0 0 0 0 1 0 1
-0 -0 0 0 0 -0 0 0 0 0 0 0 0 0 0 1 1 0 0 -0 -1 -1 -0 -0 -0 -0 0 0 0 0 0 0 0 0 0 1 1 1 1 1 1 1 1 1
-0 0 0 0 0 -0 0 0 0 0 0 0 -0 0 -0 -0 0 0 0 -0 0 0 0 0 0 0 0 0 1 1 0 1 1 1 1 2 2 2 1 1 1 1 1 1
0 0 1 0 0 -0 0 -0 0 0 0 -0 -0 -0 -0 0 0 0 0 0 0 1 1 1 1 0 1 1 1 1 1 1 1 1 1 2 2 2 2 1 1 2 1 0
0 1 0 0 -0 -0 -0 -0 0 0 0 -0 0 -0 0 0 0 0 0 0 1 1 2 1 2 2 2 2 2 2 2 2 2 2 2 2 2 1 1 1 1 1 1 0
0 0 0 0 0 0 -0 0 -0 -0 -0 0 0 0 0 0 0 0 0 0 1 5 2 3 1 2 2 3 3 3 3 2 1 1 2 2 2 2 2 2 2 1 1 1
0 0 0 0 0 0 0 -0 -0 -0 -0 -0 0 0 0 0 1 1 1 1 1 1 0 -1 1 2 2 2 2 2 3 2 2 1 2 1 1 1 0 0 0 0 0 0
0 -0 -0 0 0 0 0 0 -0 0 0 -0 -0 -0 -0 0 1 1 2 2 1 1 0 1 1 2 2 3 2 2 2 2 2 1 1 1 1 1 0 0 0 0 0 0
0 1 0 0 0 0 0 0 0 -0 0 -0 -0 0 0 0 1 1 1 1 2 2 2 2 2 2 2 1 1 1 1 0 1 1 1 1 0 0 0 0 0 0 0 0
0 0 -0 -0 0 0 1 1 1 1 1 1 0 0 1 1 1 1 1 1 1 2 2 2 2 2 1 1 1 1 0 1 1 0 0 0 0 0 0 0 0 0 0 0
0 0 0 0 1 1 1 1 1 1 1 1 1 1 1 1 1 1 1 1 1 1 2 2 2 1 1 1 1 1 1 0 0 0 0 0 0 0 0 0 0 0 0 0
0 -0 1 1 1 0 1 1 1 1 1 1 1 1 0 0 1 1 1 1 1 1 1 1 1 0 0 0 0 0 0 0 0 0 0 0 0 0 0 0 0 0 0 0
-0 0 1 0 0 1 1 1 1 1 1 1 1 0 0 1 1 1 1 1 1 1 0 0 0 0 0 0 0 0 0 0 0 0 0 0 0 0 0 0 0 0 0 0
1 1 1 1 2 1 1 1 0 1 1 1 0 1 1 1 1 1 0 0 1 0 0 0 0 0 0 0 0 0 0 0 0 0 0 0 0 0 0 0 0 0 0 0
1 1 3 2 1 1 1 1 0 0 1 1 1 1 1 1 1 1 1 1 0 0 0 0 0 0 0 0 0 0 0 0 0 0 0 0 0 0 0 0 0 0 0 0
0 0 0 3 1 1 0 0 0 1 1 1 1 1 1 1 1 1 0 0 0 0 0 0 0 0 0 0 0 0 0 0 0 0 0 0 0 0 0 0 0 0 0 0
0 0 0 0 0 0 0 1 1 1 1 1 1 1 1 1 0 0 1 0 0 0 0 0 0 0 0 0 0 0 0 0 0 0 0 0 0 0 0 0 0 0 0 0
0 0 0 0 1 1 1 0 1 1 1 1 1 0 0 0 0 0 0 0 0 0 0 0 0 0 0 0 0 0 0 0 0 0 0 0 0 0 0 0 0 0 0 0
0 0 0 0 0 1 1 0 0 0 1 1 0 0 0 0 0 0 0 0 0 0 0 0 0 0 0 0 0 0 0 0 0 0 0 0 0 0 0 0 0 0 0 0
1 1 1 1 1 1 0 1 1 0 0 0 0 0 0 0 0 0 0 0 0 0 0 0 0 0 0 0 0 0 0 0 0 0 0 0 0 0 0 0 0 0 0 0
2 1 1 0 0 0 0 0 0 0 0 0 0 0 0 0 0 0 0 0 0 0 0 0 0 0 0 0 0 0 0 0 0 0 0 0 0 0 0 0 0 0 0 0
0 1 1 0 0 0 0 1 0 0 0 0 0 0 0 0 0 0 0 0 0 0 0 0 0 0 0 0 0 0 0 0 0 0 0 0 0 0 0 0 0 0 0 0
Wind_Speed_500mb
36 32 16 30 34 35 37 37 32 20 13 35 22 31 19 30 31 27 28 28 29 46 44 45 46 50 48 44 40 41 29 29 32 31 27 23 26 26 30 33 41 40 40 45
30 35 11 18 28 27 32 37 35 29 11 46 41 44 32 23 36 29 31 38 38 44 47 41 40 46 44 39 35 31 38 37 28 23 21 21 22 22 29 30 35 39 42 43
27 31 18 23 25 29 26 33 26 24 23 39 34 31 41 43 42 40 34 40 49 53 48 38 37 39 36 30 29 28 25 20 15 15 13 15 16 15 17 17 23 27 35 40
27 24 29 25 32 29 27 21 19 19 20 25 28 30 44 52 52 48 52 53 52 48 45 40 38 37 38 32 22 17 15 13 11 9 7 5 4 4 5 10 16 22 28 30
23 24 12 23 17 25 11 17 20 14 9 37 34 40 39 47 51 52 53 53 53 49 48 57 51 46 37 30 29 23 20 20 21 16 13 12 11 6 3 6 11 18 26 37
20 23 20 32 37 48 29 17 23 20 12 45 68 21 19 47 50 48 48 57 59 57 58 54 49 45 49 46 42 36 32 28 26 24 18 13 8 2 5 13 19 24 31 29
25 25 17 13 46 65 12 14 19 9 14 28 26 33 50 38 54 47 47 54 62 61 57 46 47 52 50 41 35 29 26 24 21 17 12 6 9 10 16 24 31 29 31 36
26 13 29 29 46 50 11 19 18 14 7 16 53 42 34 33 29 49 51 58 52 52 48 51 45 41 35 28 24 27 22 17 16 12 8 9 17 22 27 32 30 39 41 45
14 25 12 14 27 35 36 39 16 4 9 12 59 54 71 102 61 52 50 54 54 57 49 39 39 30 32 32 28 27 20 18 18 15 19 20 27 30 30 32 37 29 49 45
5 22 13 32 66 33 34 35 22 18 20 18 26 60 72 54 50 45 49 51 53 55 47 48 37 30 20 25 20 19 19 20 21 19 21 25 24 21 32 33 44 44 33 50
8 16 61 22 29 34 37 31 31 30 28 27 29 37 44 42 44 42 40 43 53 41 44 43 40 26 17 19 23 22 20 19 13 19 26 21 25 29 37 36 30 33 36 39
9 39 40 21 28 34 37 40 41 37 35 30 28 28 28 34 31 30 26 24 31 38 47 37 31 28 21 17 10 11 11 11 16 15 21 26 34 33 32 28 35 39 39 32
35 58 144 42 39 38 38 41 45 39 37 40 35 36 39 42 36 37 31 25 23 28 33 30 23 17 14 10 8 7 9 11 15 21 22 25 27 24 27 30 33 28 30 33
41 33 33 22 39 39 41 44 51 52 48 44 39 37 37 41 37 33 31 26 23 21 22 25 25 19 12 3 6 3 7 15 9 11 14 19 21 25 23 27 29 33 34 37
10 14 41 35 39 46 49 51 53 54 53 48 44 45 44 47 44 41 36 33 32 30 27 21 16 13 7 2 6 1 2 7 12 15 11 16 14 17 20 27 30 32 33 35
37 34 29 43 46 47 54 57 56 55 53 48 45 43 41 43 42 37 31 26 26 25 23 24 22 10 5 4 5 3 9 12 10 13 8 13 14 10 18 25 31 36 35 42
29 40 51 51 54 55 54 52 53 50 50 48 47 45 43 40 37 32 29 25 31 30 20 10 8 8 2 1 7 3 3 9 12 8 5 5 15 17 23 25 27 33 34 36
42 49 51 59 59 58 54 51 50 50 49 45 43 41 38 34 33 31 30 17 13 11 8 11 17 13 7 12 1 12 8 4 6 15 19 14 17 15 19 20 27 32 35 40
30 50 56 57 60 58 53 48 43 44 46 42 39 37 33 31 31 28 21 19 21 18 11 7 18 8 6 19 13 12 6 10 7 10 11 11 9 13 21 24 27 28 33 39
15 14 26 60 56 51 46 40 40 42 42 43 42 41 38 32 28 25 25 23 21 14 11 4 7 3 8 7 7 7 4 6 6 7 5 10 11 14 16 21 24 25 35 47
30 38 52 50 52 39 35 39 40 43 42 43 43 40 36 30 25 17 19 17 8 5 9 14 13 7 5 3 5 6 5 3 5 8 8 10 12 13 17 21 23 26 37 48
56 47 19 15 40 41 35 36 41 42 43 41 36 32 27 24 16 16 22 16 9 10 13 2 10 13 6 12 8 3 4 6 6 6 7 9 11 11 14 20 26 31 37 42
68 66 20 20 28 35 33 33 37 39 40 35 29 27 22 15 21 18 17 11 7 16 13 10 5 8 7 6 10 9 9 8 6 7 8 9 11 15 23 27 29 29 37 50
85 70 69 39 34 34 35 35 31 33 34 31 25 22 18 18 19 22 15 11 9 17 4 6 9 11 20 11 9 9 6 6 5 5 7 8 10 14 18 23 25 28 32 36
77 70 67 65 53 40 35 36 34 29 28 26 20 18 14 18 23 21 17 12 14 14 14 16 19 20 15 6 7 6 2 0 4 4 6 8 11 15 19 21 26 31 31 34
68 58 61 57 50 43 39 36 32 25 28 21 17 19 21 17 19 17 17 15 17 17 10 13 12 13 16 11 8 7 3 4 6 9 10 11 13 15 19 22 26 29 32 34
51 54 47 43 33 37 42 40 34 28 28 27 25 25 24 23 23 18 14 16 17 17 9 11 13 13 9 9 7 4 4 7 14 10 9 10 13 16 20 22 25 28 33 36
Wind_Direction_500mb
266 278 288 210 205 215 242 267 275 280 53 45 131 99 119 133 157 166 179 175 161 136 147 154 164 174 185 191 193 208 211 202 217 227 240 225 215 235 256 251 256 265 262 262
266 267 261 275 276 209 211 234 258 274 127 117 113 112 142 195 157 166 182 149 141 150 153 153 174 183 190 203 205 212 207 213 230 233 237 236 239 240 271 271 266 267 269 269
241 253 246 230 247 257 218 211 229 248 119 127 143 160 184 161 166 170 157 144 145 147 153 165 183 188 178 182 184 196 208 218 229 262 257 255 252 259 268 278 278 277 277 278
241 224 235 252 233 219 230 228 224 227 117 129 133 158 167 169 169 162 150 139 142 150 155 156 154 156 152 153 157 141 129 139 152 152 145 144 165 225 295 322 312 307 306 305
243 228 232 277 198 229 263 197 30 24 93 146 175 161 160 175 162 153 146 149 154 154 150 149 152 144 146 140 135 137 139 139 139 146 165 163 176 166 85 10 351 344 333 318
249 260 194 239 301 208 202 196 65 28 352 86 314 184 163 172 152 147 155 156 152 149 147 151 147 145 139 138 132 140 138 148 153 159 160 155 170 148 344 337 341 316 317 337
241 247 253 25 4 317 216 120 104 123 209 213 160 96 28 351 140 147 160 152 149 148 149 144 149 146 140 144 150 156 167 180 183 175 184 233 269 304 319 325 327 336 332 323
240 229 256 129 132 245 152 154 139 89 325 305 119 129 99 328 259 152 153 150 150 153 154 161 153 150 149 162 169 177 192 199 211 216 163 253 278 307 321 328 326 327 322 330
271 215 163 64 125 138 144 133 140 118 161 218 131 150 172 180 186 154 163 153 158 156 157 160 161 153 167 166 178 192 201 214 242 251 258 286 310 324 329 330 320 330 325 323
140 15 316 118 199 152 140 135 140 152 171 160 150 145 167 153 145 158 165 165 165 158 161 161 166 164 155 184 187 203 222 230 251 273 301 313 309 318 311 309 314 314 313 322
88 35 337 128 136 151 134 138 146 145 150 139 143 148 157 151 151 161 170 179 164 157 181 172 162 166 178 193 199 207 221 243 264 278 296 291 300 305 313 322 314 319 325 324
296 140 234 201 154 145 154 152 144 151 142 142 138 147 133 132 145 154 161 185 157 164 156 150 144 164 182 221 204 181 211 257 272 277 291 295 310 309 309 306 322 326 326 327
276 152 211 151 150 156 150 148 146 143 137 128 121 127 125 121 123 127 124 131 126 132 133 135 145 149 163 162 195 213 236 270 292 288 305 303 310 311 324 324 324 332 341 340
331 124 38 131 150 144 143 132 127 118 116 120 119 120 116 116 124 124 120 130 142 139 128 133 135 134 116 132 230 277 283 297 274 286 305 309 304 323 329 333 340 328 320 330
357 247 165 169 148 138 137 133 130 128 125 124 124 123 122 120 120 122 123 122 122 124 129 132 136 134 156 105 281 202 297 259 305 318 304 316 331 329 328 332 336 335 337 336
209 214 195 155 146 152 146 139 135 132 130 129 127 125 124 123 124 125 126 129 134 133 140 156 144 104 82 97 69 35 279 300 357 341 339 327 327 339 344 329 330 332 342 342
202 214 155 154 162 158 148 139 136 133 129 129 130 131 131 130 129 132 132 133 145 152 150 149 130 103 121 283 119 64 303 309 353 356 330 295 356 357 338 346 339 339 330 329
213 183 173 171 165 150 139 137 135 134 133 135 137 138 135 136 137 137 150 149 144 154 126 150 156 152 218 308 307 115 339 253 273 299 291 315 2 4 343 344 346 344 342 341
249 175 171 160 142 133 131 133 138 137 137 137 139 139 139 136 137 139 135 130 137 130 120 100 127 56 257 315 122 54 26 29 15 313 324 21 30 8 346 343 352 349 346 335
168 104 184 123 126 132 134 142 141 137 136 139 137 134 134 134 138 139 148 134 123 130 111 187 123 175 294 349 159 116 53 39 33 9 7 4 357 16 352 344 349 358 0 3
141 101 345 126 118 120 144 143 139 138 138 139 137 139 143 141 136 137 163 142 157 173 134 145 164 181 241 183 134 99 87 84 64 16 29 25 7 6 1 4 1 7 8 10
158 155 322 116 136 141 139 138 144 141 137 139 144 149 156 170 160 151 139 155 201 174 146 153 234 208 206 141 147 64 67 84 75 60 30 17 12 1 356 348 1 2 359 4
135 137 170 190 142 138 142 148 145 142 138 140 147 146 159 159 183 149 147 164 148 170 186 208 159 164 165 116 108 107 85 82 59 32 5 12 359 341 344 354 4 348 342 348
151 156 151 183 156 145 151 153 152 148 141 138 144 150 151 156 148 172 203 205 159 180 193 155 144 124 108 118 113 99 110 79 62 22 6 356 350 345 344 349 347 335 346 346
150 155 154 155 161 163 162 160 166 150 139 145 144 148 151 170 150 142 156 161 171 165 150 129 120 111 108 121 129 118 10 337 33 52 21 2 355 347 339 349 342 344 341 343
154 152 158 155 157 160 168 174 167 157 154 146 148 150 148 143 159 154 150 158 144 131 142 119 126 142 160 149 132 124 109 326 45 17 22 10 358 356 350 353 348 345 339 336
156 159 153 156 165 176 177 182 168 160 166 161 161 169 174 157 155 147 146 153 149 167 183 162 159 155 154 142 129 116 97 352 350 27 14 8 1 351 353 351 346 342 338 341
Wind_Speed_850mb
36 32 16 30 34 35 37 37 32 20 13 35 22 31 19 30 31 27 28 28 29 46 44 45 46 50 48 44 40 41 29 29 32 31 27 23 26 26 30 33 41 40 40 45
30 35 11 18 28 27 32 37 35 29 11 46 41 44 32 23 36 29 31 38 38 44 47 41 40 46 44 39 35 31 38 37 28 23 21 21 22 22 29 30 35 39 42 43
27 31 18 23 25 29 26 33 26 24 23 39 34 31 41 43 42 40 34 40 49 53 48 38 37 39 36 30 29 28 25 20 15 15 13 15 16 15 17 17 23 27 35 40
27 24 29 25 32 29 27 21 19 19 20 25 28 30 44 52 52 48 52 53 52 48 45 40 38 37 38 32 22 17 15 13 11 9 7 5 4 4 5 10 16 22 28 30
23 24 12 23 17 25 11 17 20 14 9 37 34 40 39 47 51 52 53 53 53 49 48 57 51 46 37 30 29 23 20 20 21 16 13 12 11 6 3 6 11 18 26 37
20 23 20 32 37 48 29 17 23 20 12 45 68 21 19 47 50 48 48 57 59 57 58 54 49 45 49 46 42 36 32 28 26 24 18 13 8 2 5 13 19 24 31 29
25 25 17 13 46 65 12 14 19 9 14 28 26 33 50 38 54 47 47 54 62 61 57 46 47 52 50 41 35 29 26 24 21 17 12 6 9 10 16 24 31 29 31 36
26 13 29 29 46 50 11 19 18 14 7 16 53 42 34 33 29 49 51 58 52 52 48 51 45 41 35 28 24 27 22 17 16 12 8 9 17 22 27 32 30 39 41 45
14 25 12 14 27 35 36 39 16 4 9 12 59 54 71 102 61 52 50 54 54 57 49 39 39 30 32 32 28 27 20 18 18 15 19 20 27 30 30 32 37 29 49 45
5 22 13 32 66 33 34 35 22 18 20 18 26 60 72 54 50 45 49 51 53 55 47 48 37 30 20 25 20 19 19 20 21 19 21 25 24 21 32 33 44 44 33 50
8 16 61 22 29 34 37 31 31 30 28 27 29 37 44 42 44 42 40 43 53 41 44 43 40 26 17 19 23 22 20 19 13 19 26 21 25 29 37 36 30 33 36 39
9 39 40 21 28 34 37 40 41 37 35 30 28 28 28 34 31 30 26 24 31 38 47 37 31 28 21 17 10 11 11 11 16 15 21 26 34 33 32 28 35 39 39 32
35 58 144 42 39 38 38 41 45 39 37 40 35 36 39 42 36 37 31 25 23 28 33 30 23 17 14 10 8 7 9 11 15 21 22 25 27 24 27 30 33 28 30 33
41 33 33 22 39 39 41 44 51 52 48 44 39 37 37 41 37 33 31 26 23 21 22 25 25 19 12 3 6 3 7 15 9 11 14 19 21 25 23 27 29 33 34 37
10 14 41 35 39 46 49 51 53 54 53 48 44 45 44 47 44 41 36 33 32 30 27 21 16 13 7 2 6 1 2 7 12 15 11 16 14 17 20 27 30 32 33 35
37 34 29 43 46 47 54 57 56 55 53 48 45 43 41 43 42 37 31 26 26 25 23 24 22 10 5 4 5 3 9 12 10 13 8 13 14 10 18 25 31 36 35 42
29 40 51 51 54 55 54 52 53 50 50 48 47 45 43 40 37 32 29 25 31 30 20 10 8 8 2 1 7 3 3 9 12 8 5 5 15 17 23 25 27 33 34 36
42 49 51 59 59 58 54 51 50 50 49 45 43 41 38 34 33 31 30 17 13 11 8 11 17 13 7 12 1 12 8 4 6 15 19 14 17 15 19 20 27 32 35 40
30 50 56 57 60 58 53 48 43 44 46 42 39 37 33 31 31 28 21 19 21 18 11 7 18 8 6 19 13 12 6 10 7 10 11 11 9 13 21 24 27 28 33 39
15 14 26 60 56 51 46 40 40 42 42 43 42 41 38 32 28 25 25 23 21 14 11 4 7 3 8 7 7 7 4 6 6 7 5 10 11 14 16 21 24 25 35 47
30 38 52 50 52 39 35 39 40 43 42 43 43 40 36 30 25 17 19 17 8 5 9 14 13 7 5 3 5 6 5 3 5 8 8 10 12 13 17 21 23 26 37 48
56 47 19 15 40 41 35 36 41 42 43 41 36 32 27 24 16 16 22 16 9 10 13 2 10 13 6 12 8 3 4 6 6 6 7 9 11 11 14 20 26 31 37 42
68 66 20 20 28 35 33 33 37 39 40 35 29 27 22 15 21 18 17 11 7 16 13 10 5 8 7 6 10 9 9 8 6 7 8 9 11 15 23 27 29 29 37 50
85 70 69 39 34 34 35 35 31 33 34 31 25 22 18 18 19 22 15 11 9 17 4 6 9 11 20 11 9 9 6 6 5 5 7 8 10 14 18 23 25 28 32 36
77 70 67 65 53 40 35 36 34 29 28 26 20 18 14 18 23 21 17 12 14 14 14 16 19 20 15 6 7 6 2 0 4 4 6 8 11 15 19 21 26 31 31 34
68 58 61 57 50 43 39 36 32 25 28 21 17 19 21 17 19 17 17 15 17 17 10 13 12 13 16 11 8 7 3 4 6 9 10 11 13 15 19 22 26 29 32 34
51 54 47 43 33 37 42 40 34 28 28 27 25 25 24 23 23 18 14 16 17 17 9 11 13 13 9 9 7 4 4 7 14 10 9 10 13 16 20 22 25 28 33 36
Wind_Direction_850mb
266 278 288 210 205 215 242 267 275 280 53 45 131 99 119 133 157 166 179 175 161 136 147 154 164 174 185 191 193 208 211 202 217 227 240 225 215 235 256 251 256 265 262 262
266 267 261 275 276 209 211 234 258 274 127 117 113 112 142 195 157 166 182 149 141 150 153 153 174 183 190 203 205 212 207 213 230 233 237 236 239 240 271 271 266 267 269 269
241 253 246 230 247 257 218 211 229 248 119 127 143 160 184 161 166 170 157 144 145 147 153 165 183 188 178 182 184 196 208 218 229 262 257 255 252 259 268 278 278 277 277 278
241 224 235 252 233 219 230 228 224 227 117 129 133 158 167 169 169 162 150 139 142 150 155 156 154 156 152 153 157 141 129 139 152 152 145 144 165 225 295 322 312 307 306 305
243 228 232 277 198 229 263 197 30 24 93 146 175 161 160 175 162 153 146 149 154 154 150 149 152 144 146 140 135 137 139 139 139 146 165 163 176 166 85 10 351 344 333 318
249 260 194 239 301 208 202 196 65 28 352 86 314 184 163 172 152 147 155 156 152 149 147 151 147 145 139 138 132 140 138 148 153 159 160 155 170 148 344 337 341 316 317 337
241 247 253 25 4 317 216 120 104 123 209 213 160 96 28 351 140 147 160 152 149 148 149 144 149 146 140 144 150 156 167 180 183 175 184 233 269 304 319 325 327 336 332 323
240 229 256 129 132 245 152 154 139 89 325 305 119 129 99 328 259 152 153 150 150 153 154 161 153 150 149 162 169 177 192 199 211 216 163 253 278 307 321 328 326 327 322 330
271 215 163 64 125 138 144 133 140 118 161 218 131 150 172 180 186 154 163 153 158 156 157 160 161 153 167 166 178 192 201 214 242 251 258 286 310 324 329 330 320 330 325 323
140 15 316 118 199 152 140 135 140 152 171 160 150 145 167 153 145 158 165 165 165 158 161 161 166 164 155 184 187 203 222 230 251 273 301 313 309 318 311 309 314 314 313 322
88 35 337 128 136 151 134 138 146 145 150 139 143 148 157 151 151 161 170 179 164 157 181 172 162 166 178 193 199 207 221 243 264 278 296 291 300 305 313 322 314 319 325 324
296 140 234 201 154 145 154 152 144 151 142 142 138 147 133 132 145 154 161 185 157 164 156 150 144 164 182 221 204 181 211 257 272 277 291 295 310 309 309 306 322 326 326 327
276 152 211 151 150 156 150 148 146 143 137 128 121 127 125 121 123 127 124 131 126 132 133 135 145 149 163 162 195 213 236 270 292 288 305 303 310 311 324 324 324 332 341 340
331 124 38 131 150 144 143 132 127 118 116 120 119 120 116 116 124 124 120 130 142 139 128 133 135 134 116 132 230 277 283 297 274 286 305 309 304 323 329 333 340 328 320 330
357 247 165 169 148 138 137 133 130 128 125 124 124 123 122 120 120 122 123 122 122 124 129 132 136 134 156 105 281 202 297 259 305 318 304 316 331 329 328 332 336 335 337 336
209 214 195 155 146 152 146 139 135 132 130 129 127 125 124 123 124 125 126 129 134 133 140 156 144 104 82 97 69 35 279 300 357 341 339 327 327 339 344 329 330 332 342 342
202 214 155 154 162 158 148 139 136 133 129 129 130 131 131 130 129 132 132 133 145 152 150 149 130 103 121 283 119 64 303 309 353 356 330 295 356 357 338 346 339 339 330 329
213 183 173 171 165 150 139 137 135 134 133 135 137 138 135 136 137 137 150 149 144 154 126 150 156 152 218 308 307 115 339 253 273 299 291 315 2 4 343 344 346 344 342 341
249 175 171 160 142 133 131 133 138 137 137 137 139 139 139 136 137 139 135 130 137 130 120 100 127 56 257 315 122 54 26 29 15 313 324 21 30 8 346 343 352 349 346 335
168 104 184 123 126 132 134 142 141 137 136 139 137 134 134 134 138 139 148 134 123 130 111 187 123 175 294 349 159 116 53 39 33 9 7 4 357 16 352 344 349 358 0 3
141 101 345 126 118 120 144 143 139 138 138 139 137 139 143 141 136 137 163 142 157 173 134 145 164 181 241 183 134 99 87 84 64 16 29 25 7 6 1 4 1 7 8 10
158 155 322 116 136 141 139 138 144 141 137 139 144 149 156 170 160 151 139 155 201 174 146 153 234 208 206 141 147 64 67 84 75 60 30 17 12 1 356 348 1 2 359 4
135 137 170 190 142 138 142 148 145 142 138 140 147 146 159 159 183 149 147 164 148 170 186 208 159 164 165 116 108 107 85 82 59 32 5 12 359 341 344 354 4 348 342 348
151 156 151 183 156 145 151 153 152 148 141 138 144 150 151 156 148 172 203 205 159 180 193 155 144 124 108 118 113 99 110 79 62 22 6 356 350 345 344 349 347 335 346 346
150 155 154 155 161 163 162 160 166 150 139 145 144 148 151 170 150 142 156 161 171 165 150 129 120 111 108 121 129 118 10 337 33 52 21 2 355 347 339 349 342 344 341 343
154 152 158 155 157 160 168 174 167 157 154 146 148 150 148 143 159 154 150 158 144 131 142 119 126 142 160 149 132 124 109 326 45 17 22 10 358 356 350 353 348 345 339 336
156 159 153 156 165 176 177 182 168 160 166 161 161 169 174 157 155 147 146 153 149 167 183 162 159 155 154 142 129 116 97 352 350 27 14 8 1 351 353 351 346 342 338 341